Location: St. Louis
(38.6270°N, 90.1994°W)
Time: 02:53:40
(UTC-05:00)

OPS 7613 P/L 1 - Pass Details

Date: 10 July 2022
Orbit: 887 x 911 km, 70.0° (Epoch: 10 August)

Event Time Altitude Azimuth Distance (km) Brightness Sun altitude
Rises 04:20:03 0° 332° (NNW) 3,503 11.6 -14.1°
Reaches altitude 10° 04:22:34 10° 329° (NNW) 2,558 10.9 -13.8°
Maximum altitude 04:28:22 62° 250° (WSW) 996 8.3 -12.9°
Drops below altitude 10° 04:34:07 10° 171° (S) 2,540 10.4 -12.1°
Sets 04:36:37 0° 168° (SSE) 3,476 11.1 -11.7°
